Flag for U.S.A. Weather past 2 weeks in Tuscaloosa, Alabama, U.S.A.

Now
73 °F

Light rain. Fog.


Feels Like: 71 °F
Forecast: 69 / 80 °F
Wind: 10 mph from Southeast

Location: Tuscaloosa Municipal Airport

Current Time: May 26, 2015 at 12:08:27 PM

Latest Report: May 26, 2015 at 10:53 AM


Visibility: 6 mi

Pressure: 30.11 "Hg

Humidity: 90%

Dew point: 70 °F

Location of TuscaloosaLocation

Historic Weather in Tuscaloosa — Graph

°F

Tuscaloosa temperature yesterday

Maximum temperature yesterday: 77 °F (at 2:53 PM)
Minimum temperature yesterday: 69 °F (at 10:53 PM)
Average temperature yesterday: 73 °F

Past Weeks' High & Low Weather Summary

 TemperatureHumidityPressure
High88 °F (May 17, 3:53 PM)97% (May 21, 1:53 AM)30.30 "Hg (May 21, 1:53 AM)
Low49 °F (May 22, 4:53 AM)20% (May 13, 5:53 PM)29.93 "Hg (May 20, 5:53 PM)
Average73 °F73%30.14 "Hg
* Reported May 11 10:53 AM — May 26 10:53 AM, Tuscaloosa, Weather by CustomWeather, © 2015

Note: Actual official high and low records may vary slightly from our data, if they occured in-between our weather recording intervals... More about our weather records

Advertising

Tuscaloosa weather history for previous 24 hours

 ConditionsComfort  
Time TempWeatherWind HumidityBarometerVisibility
10:53 AM
Tue, May 26
73 °FLight rain. Fog.10 mph90%30.11 "Hg6 mi
9:57 AM73 °FLight rain. Fog.10 mph90%30.14 "Hg3 mi
8:53 AM73 °FOvercast.7 mph88%30.13 "Hg8 mi
7:53 AM73 °FOvercast.8 mph88%30.12 "Hg8 mi
7:03 AM72 °FOvercast.12 mph87%30.13 "Hg8 mi
6:53 AM71 °FLow clouds.10 mph90%30.12 "Hg8 mi
5:53 AM71 °FLow clouds.9 mph87%30.09 "Hg8 mi
4:53 AM70 °FOvercast.6 mph87%30.09 "Hg10 mi
3:53 AM70 °FPassing clouds.3 mph87%30.07 "Hg10 mi
2:53 AM69 °FPassing clouds.5 mph90%30.08 "Hg10 mi
1:53 AM69 °FClear.No wind90%30.09 "Hg10 mi
12:53 AM69 °FClear.5 mph90%30.10 "Hg10 mi
11:53 PM
Mon, May 25
69 °FClear.3 mph93%30.12 "Hg10 mi
10:53 PM69 °FClear.5 mph93%30.13 "Hg10 mi
9:53 PM70 °FPassing clouds.5 mph90%30.12 "Hg10 mi
8:53 PM71 °FPassing clouds.6 mph87%30.09 "Hg10 mi
7:53 PM72 °FPassing clouds.7 mph87%30.08 "Hg10 mi
6:53 PM73 °FScattered clouds.9 mph84%30.09 "Hg10 mi
5:53 PM74 °FSunny.10 mph82%30.11 "Hg10 mi
4:53 PM75 °FPartly sunny.7 mph88%30.13 "Hg9 mi
3:53 PM76 °FLight rain. Partly sunny.6 mph88%30.14 "Hg7 mi
3:03 PM76 °FPartly sunny.7 mph88%30.14 "Hg8 mi
2:53 PM77 °FScattered clouds.9 mph85%30.13 "Hg8 mi
1:53 PM76 °FLight rain. Fog.6 mph88%30.15 "Hg6 mi
12:53 PM76 °FLight rain. Overcast.12 mph85%30.16 "Hg7 mi
Weather by CustomWeather, © 2015

See weather overviewHow to use our weather pages